Terug naar catalogus

CZ-6A DEB

ActiefSSO
NORAD 54597·DEBRIS·🇨🇳 China

Gelanceerd Nov 11, 2022 vanaf Taiyuan Satellite Launch Center

Loading…

Volgende Passages (komende 24 uur)

TLE

VersSource: Space-Track

Epoch: Sep 14, 2026, 07:16 UTC

1 54597U 22151MX  26257.30339265  .00001451  00000-0  49527-3 0  9995
2 54597  98.6540 283.0942 0070788 163.3314 197.0222 14.36488820200013

Volg CZ-6A DEB in realtime met AllMySat

Download on the App Store